Time,TemperatureF,DewpointF,PressureIn,WindDirection,WindDirectionDegrees,WindSpeedMPH,WindSpeedGustMPH,Humidity,HourlyPrecipIn,Conditions,Clouds,dailyrainin,SolarRadiationWatts/m^2,SoftwareType,DateUTC
2013-05-10 00:01:00,45.0,32.0,-100.00,North,353,5.0,7.0,61,0.00,,,0.00,1.000000,,2013-05-10 06:01:00,
2013-05-10 00:12:00,45.0,32.0,-100.00,North,353,5.0,7.0,61,0.00,,,0.00,1.000000,,2013-05-10 06:12:00,
2013-05-10 00:42:00,43.0,34.0,-100.00,North,358,5.0,6.0,69,0.00,,,0.00,1.000000,,2013-05-10 06:42:00,
2013-05-10 00:52:00,43.0,34.0,-100.00,North,358,5.0,6.0,69,0.00,,,0.00,1.000000,,2013-05-10 06:52:00,
2013-05-10 01:01:00,43.0,34.0,-100.00,North,358,5.0,6.0,69,0.00,,,0.00,1.000000,,2013-05-10 07:01:00,
2013-05-10 01:11:00,43.0,34.0,-100.00,North,358,5.0,6.0,69,0.00,,,0.00,1.000000,,2013-05-10 07:11:00,
2013-05-10 01:42:00,42.0,33.0,-100.00,NE,38,6.0,10.0,70,0.00,,,0.00,1.000000,,2013-05-10 07:42:00,
2013-05-10 01:52:00,42.0,33.0,-100.00,NE,38,6.0,10.0,70,0.00,,,0.00,1.000000,,2013-05-10 07:52:00,
2013-05-10 02:02:00,42.0,33.0,-100.00,NE,38,6.0,10.0,70,0.00,,,0.00,1.000000,,2013-05-10 08:02:00,
2013-05-10 02:12:00,42.0,33.0,-100.00,NE,38,6.0,10.0,70,0.00,,,0.00,1.000000,,2013-05-10 08:12:00,
2013-05-10 02:42:00,40.0,32.0,-100.00,SE,124,3.0,7.0,73,0.00,,,0.00,1.000000,,2013-05-10 08:42:00,
2013-05-10 02:52:00,40.0,32.0,-100.00,SE,124,3.0,7.0,73,0.00,,,0.00,1.000000,,2013-05-10 08:52:00,
2013-05-10 03:01:00,40.0,32.0,-100.00,SE,124,3.0,7.0,73,0.00,,,0.00,1.000000,,2013-05-10 09:01:00,
2013-05-10 03:11:00,40.0,32.0,-100.00,SE,124,3.0,7.0,73,0.00,,,0.00,1.000000,,2013-05-10 09:11:00,
2013-05-10 03:43:00,42.0,34.0,-100.00,East,92,2.0,7.0,72,0.00,,,0.00,1.000000,,2013-05-10 09:43:00,
2013-05-10 03:52:00,42.0,34.0,-100.00,East,92,2.0,7.0,72,0.00,,,0.00,1.000000,,2013-05-10 09:52:00,
2013-05-10 04:02:00,42.0,34.0,-100.00,East,92,2.0,7.0,72,0.00,,,0.00,1.000000,,2013-05-10 10:02:00,
2013-05-10 04:12:00,42.0,34.0,-100.00,East,92,2.0,7.0,72,0.00,,,0.00,1.000000,,2013-05-10 10:12:00,
2013-05-10 04:33:00,41.0,32.0,-100.00,NE,43,6.0,9.0,69,0.00,,,-99.99,1.000000,,2013-05-10 10:33:00,
2013-05-10 04:42:00,41.0,32.0,-100.00,NE,43,6.0,9.0,69,0.00,,,-99.99,1.000000,,2013-05-10 10:42:00,
2013-05-10 04:52:00,41.0,32.0,-100.00,NE,43,6.0,9.0,69,0.00,,,-99.99,1.000000,,2013-05-10 10:52:00,
2013-05-10 05:02:00,41.0,32.0,-100.00,NE,43,6.0,9.0,69,0.00,,,-99.99,1.000000,,2013-05-10 11:02:00,
2013-05-10 05:12:00,41.0,32.0,-100.00,NE,43,6.0,9.0,69,0.00,,,-99.99,1.000000,,2013-05-10 11:12:00,
2013-05-10 07:42:00,44.0,35.0,-100.00,NNE,29,5.0,8.0,70,-99.99,,,-99.99,49.000000,,2013-05-10 13:42:00,
2013-05-10 07:52:00,44.0,35.0,-100.00,NNE,29,5.0,8.0,70,-99.99,,,-99.99,49.000000,,2013-05-10 13:52:00,
2013-05-10 08:02:00,44.0,35.0,-100.00,NNE,29,5.0,8.0,70,-99.99,,,-99.99,49.000000,,2013-05-10 14:02:00,
2013-05-10 08:11:00,44.0,35.0,-100.00,NNE,29,5.0,8.0,70,-99.99,,,-99.99,49.000000,,2013-05-10 14:11:00,
2013-05-10 08:15:00,-999.0,-99.9,-100.00,NNE,33,6.0,11.0,50,0.00,,,0.00,254.000000,,2013-05-10 14:15:00,
2013-05-10 08:42:00,50.0,32.0,-100.00,NNE,33,6.0,11.0,50,0.00,,,0.00,254.000000,,2013-05-10 14:42:00,
2013-05-10 09:42:00,54.0,32.0,-100.00,East,91,5.0,11.0,43,0.00,,,0.00,489.000000,,2013-05-10 15:42:00,
2013-05-10 09:53:00,54.0,32.0,-100.00,East,91,5.0,11.0,43,0.00,,,0.00,489.000000,,2013-05-10 15:53:00,
2013-05-10 10:02:00,54.0,32.0,-100.00,East,91,5.0,11.0,43,0.00,,,0.00,489.000000,,2013-05-10 16:02:00,
2013-05-10 10:12:00,54.0,32.0,-100.00,East,91,5.0,11.0,43,0.00,,,0.00,489.000000,,2013-05-10 16:12:00,
2013-05-10 10:43:00,57.0,31.0,-100.00,NNE,24,6.0,13.0,37,0.00,,,0.00,723.000000,,2013-05-10 16:43:00,
2013-05-10 10:52:00,57.0,31.0,-100.00,NNE,24,6.0,13.0,37,0.00,,,0.00,723.000000,,2013-05-10 16:52:00,
2013-05-10 11:02:00,57.0,31.0,-100.00,NNE,24,6.0,13.0,37,0.00,,,0.00,723.000000,,2013-05-10 17:02:00,
2013-05-10 11:12:00,57.0,31.0,-100.00,NNE,24,6.0,13.0,37,0.00,,,0.00,723.000000,,2013-05-10 17:12:00,
2013-05-10 11:42:00,58.0,28.0,-100.00,NW,316,9.0,16.0,32,0.00,,,0.00,696.000000,,2013-05-10 17:42:00,
2013-05-10 11:52:00,58.0,28.0,-100.00,NW,316,9.0,16.0,32,0.00,,,0.00,696.000000,,2013-05-10 17:52:00,
2013-05-10 12:10:00,-999.0,-99.9,-100.00,NW,316,9.0,16.0,32,0.00,,,0.00,696.000000,,2013-05-10 18:10:00,
2013-05-10 12:43:00,60.0,28.0,-100.00,NNW,327,10.0,18.0,30,0.00,,,0.00,979.000000,,2013-05-10 18:43:00,
2013-05-10 12:54:00,60.0,28.0,-100.00,NNW,327,10.0,18.0,30,0.00,,,0.00,979.000000,,2013-05-10 18:54:00,
2013-05-10 13:02:00,60.0,28.0,-100.00,NNW,327,10.0,18.0,30,0.00,,,0.00,979.000000,,2013-05-10 19:02:00,
2013-05-10 13:11:00,60.0,28.0,-100.00,NNW,327,10.0,18.0,30,0.00,,,0.00,979.000000,,2013-05-10 19:11:00,
2013-05-10 13:42:00,63.0,27.0,-100.00,NW,308,9.0,19.0,25,0.00,,,0.00,999.000000,,2013-05-10 19:42:00,
2013-05-10 13:52:00,63.0,27.0,-100.00,NW,308,9.0,19.0,25,0.00,,,0.00,999.000000,,2013-05-10 19:52:00,
2013-05-10 14:01:00,63.0,27.0,-100.00,NW,308,9.0,19.0,25,0.00,,,0.00,999.000000,,2013-05-10 20:01:00,
2013-05-10 14:11:00,63.0,27.0,-100.00,NW,308,9.0,19.0,25,0.00,,,0.00,999.000000,,2013-05-10 20:11:00,
2013-05-10 14:42:00,63.0,24.0,-100.00,NNW,337,9.0,17.0,22,0.00,,,0.00,818.000000,,2013-05-10 20:42:00,
2013-05-10 14:52:00,63.0,24.0,-100.00,NNW,337,9.0,17.0,22,0.00,,,0.00,818.000000,,2013-05-10 20:52:00,
2013-05-10 15:01:00,63.0,24.0,-100.00,NNW,337,9.0,17.0,22,0.00,,,0.00,818.000000,,2013-05-10 21:01:00,
2013-05-10 15:11:00,63.0,24.0,-100.00,NNW,337,9.0,17.0,22,0.00,,,0.00,818.000000,,2013-05-10 21:11:00,
2013-05-10 15:43:00,66.0,25.0,-100.00,West,279,7.0,21.0,21,0.00,,,0.00,844.000000,,2013-05-10 21:43:00,
2013-05-10 15:52:00,66.0,25.0,-100.00,West,279,7.0,21.0,21,0.00,,,0.00,844.000000,,2013-05-10 21:52:00,
2013-05-10 16:02:00,66.0,25.0,-100.00,West,279,7.0,21.0,21,0.00,,,0.00,844.000000,,2013-05-10 22:02:00,
2013-05-10 16:12:00,66.0,25.0,-100.00,West,279,7.0,21.0,21,0.00,,,0.00,844.000000,,2013-05-10 22:12:00,
2013-05-10 16:42:00,65.0,29.0,-100.00,NW,318,21.0,30.0,26,0.00,,,0.00,805.000000,,2013-05-10 22:42:00,
2013-05-10 16:52:00,65.0,29.0,-100.00,NW,318,21.0,30.0,26,0.00,,,0.00,805.000000,,2013-05-10 22:52:00,
2013-05-10 17:02:00,65.0,29.0,-100.00,NW,318,21.0,30.0,26,0.00,,,0.00,805.000000,,2013-05-10 23:02:00,
2013-05-10 17:12:00,65.0,29.0,-100.00,NW,318,21.0,30.0,26,0.00,,,0.00,805.000000,,2013-05-10 23:12:00,
2013-05-10 17:42:00,62.0,29.0,-100.00,North,352,15.0,31.0,28,0.00,,,0.00,789.000000,,2013-05-10 23:42:00,
2013-05-10 17:52:00,62.0,29.0,-100.00,North,352,15.0,31.0,28,0.00,,,0.00,789.000000,,2013-05-10 23:52:00,
2013-05-10 18:01:00,62.0,29.0,-100.00,North,352,15.0,31.0,28,0.00,,,0.00,789.000000,,2013-05-11 00:01:00,
2013-05-10 18:11:00,62.0,29.0,-100.00,North,352,15.0,31.0,28,0.00,,,0.00,789.000000,,2013-05-11 00:11:00,
2013-05-10 18:42:00,58.0,29.0,-100.00,ENE,74,16.0,31.0,33,0.00,,,0.00,415.000000,,2013-05-11 00:42:00,
2013-05-10 18:52:00,58.0,29.0,-100.00,ENE,74,16.0,31.0,33,0.00,,,0.00,415.000000,,2013-05-11 00:52:00,
2013-05-10 19:01:00,58.0,29.0,-100.00,ENE,74,16.0,31.0,33,0.00,,,0.00,415.000000,,2013-05-11 01:01:00,
2013-05-10 19:11:00,58.0,29.0,-100.00,ENE,74,16.0,31.0,33,0.00,,,0.00,415.000000,,2013-05-11 01:11:00,
2013-05-10 19:32:00,56.0,30.0,-100.00,ESE,106,10.0,21.0,37,0.00,,,0.00,149.000000,,2013-05-11 01:32:00,
2013-05-10 19:42:00,56.0,30.0,-100.00,ESE,106,10.0,21.0,37,0.00,,,0.00,149.000000,,2013-05-11 01:42:00,
2013-05-10 19:52:00,56.0,30.0,-100.00,ESE,106,10.0,21.0,37,0.00,,,0.00,149.000000,,2013-05-11 01:52:00,
2013-05-10 20:02:00,56.0,30.0,-100.00,ESE,106,10.0,21.0,37,0.00,,,0.00,149.000000,,2013-05-11 02:02:00,
2013-05-10 20:11:00,56.0,30.0,-100.00,ESE,106,10.0,21.0,37,0.00,,,0.00,149.000000,,2013-05-11 02:11:00,
2013-05-10 20:42:00,51.0,33.0,-100.00,SE,136,8.0,13.0,49,0.00,,,0.00,27.000000,,2013-05-11 02:42:00,
2013-05-10 20:52:00,51.0,33.0,-100.00,SE,136,8.0,13.0,49,0.00,,,0.00,27.000000,,2013-05-11 02:52:00,
2013-05-10 21:01:00,51.0,33.0,-100.00,SE,136,8.0,13.0,49,0.00,,,0.00,27.000000,,2013-05-11 03:01:00,
2013-05-10 21:11:00,51.0,33.0,-100.00,SE,136,8.0,13.0,49,0.00,,,0.00,27.000000,,2013-05-11 03:11:00,
2013-05-10 21:43:00,48.0,33.0,-100.00,SE,138,5.0,12.0,56,0.00,,,0.00,1.000000,,2013-05-11 03:43:00,
2013-05-10 21:53:00,48.0,33.0,-100.00,SE,138,5.0,12.0,56,0.00,,,0.00,1.000000,,2013-05-11 03:53:00,
2013-05-10 22:02:00,48.0,33.0,-100.00,SE,138,5.0,12.0,56,0.00,,,0.00,1.000000,,2013-05-11 04:02:00,
2013-05-10 22:12:00,48.0,33.0,-100.00,SE,138,5.0,12.0,56,0.00,,,0.00,1.000000,,2013-05-11 04:12:00,
2013-05-10 22:43:00,47.0,34.0,-100.00,ESE,113,7.0,9.0,61,0.00,,,0.00,1.000000,,2013-05-11 04:43:00,
2013-05-10 22:52:00,47.0,34.0,-100.00,ESE,113,7.0,9.0,61,0.00,,,0.00,1.000000,,2013-05-11 04:52:00,
2013-05-10 23:02:00,47.0,34.0,-100.00,ESE,113,7.0,9.0,61,0.00,,,0.00,1.000000,,2013-05-11 05:02:00,
2013-05-10 23:11:00,47.0,34.0,-100.00,ESE,113,7.0,9.0,61,0.00,,,0.00,1.000000,,2013-05-11 05:11:00,
2013-05-10 23:32:00,47.0,33.0,-100.00,East,89,7.0,11.0,59,0.00,,,0.00,1.000000,,2013-05-11 05:32:00,
2013-05-10 23:42:00,47.0,33.0,-100.00,East,89,7.0,11.0,59,0.00,,,0.00,1.000000,,2013-05-11 05:42:00,
2013-05-10 23:52:00,47.0,33.0,-100.00,East,89,7.0,11.0,59,0.00,,,0.00,1.000000,,2013-05-11 05:52:00,